Location: Marion Hill
(40.7303°N, 80.2959°W)
Time: 09:51:26
(UTC+00:00)

ISS - Visible Passes

Search period start: 25 June 2021 00:00
Search period end: 05 July 2021 00:00
Orbit: 419 x 422 km, 51.6° (Epoch: 25 June)

Date Brightness Start Highest point End Pass type
(mag) Time Alt. Az. Time Alt. Az. Time Alt. Az.
26 Jun -3.1 09:11:46 10° SW 09:15:01 48° SE 09:18:17 10° ENE visible
27 Jun -2.3 08:26:08 18° S 08:27:53 28° SE 08:30:49 10° ENE visible
28 Jun -1.7 07:40:43 17° SE 07:40:48 17° SE 07:43:02 10° E visible
28 Jun -3.3 09:14:00 10° WSW 09:17:19 56° NNW 09:20:39 10° NE visible
29 Jun -3.8 08:28:10 25° SW 08:30:02 88° SE 08:33:25 10° NE visible
30 Jun -3.4 07:42:36 49° SSE 07:42:47 50° SE 07:46:04 10° ENE visible
30 Jun -2.0 09:16:52 10° W 09:19:46 25° NNW 09:22:39 10° NE visible
01 Jul -1.7 06:56:57 21° E 06:56:57 21° E 06:58:32 10° ENE visible
01 Jul -2.5 08:29:55 15° W 08:32:19 35° NNW 08:35:28 10° NE visible
02 Jul -3.3 07:44:12 43° W 07:44:55 55° NNW 07:48:14 10° NE visible
02 Jul -1.2 09:20:06 10° NW 09:22:18 16° NNW 09:24:31 10° NNE visible
03 Jul -2.8 06:58:25 47° NE 06:58:25 47° NE 07:00:56 10° NE visible
03 Jul -1.4 08:32:11 10° WNW 08:34:44 20° NNW 08:37:18 10° NNE visible
04 Jul -1.2 06:12:35 17° ENE 06:12:35 17° ENE 06:13:30 10° ENE visible
04 Jul -1.8 07:45:32 17° WNW 07:47:11 25° NNW 07:50:04 10° NE visible
